Time,TemperatureF,DewpointF,PressureIn,WindDirection,WindDirectionDegrees,WindSpeedMPH,WindSpeedGustMPH,Humidity,HourlyPrecipIn,Conditions,Clouds,dailyrainin,SoftwareType,DateUTC
2013-10-22 00:14:00,53.4,52.9,29.26,ENE,74,2.0,7.0,98,0.04,RA,,0.04,WeatherDisplay:10.37,2013-10-21 23:14:00,
2013-10-22 00:29:00,53.4,52.8,29.26,East,87,1.0,6.0,98,0.11,RA,,0.15,WeatherDisplay:10.37,2013-10-21 23:29:00,
2013-10-22 00:44:00,53.8,53.2,29.25,ENE,67,3.0,9.0,98,0.05,RA,,0.20,WeatherDisplay:10.37,2013-10-21 23:44:00,
2013-10-22 00:59:00,54.6,54.1,29.25,ENE,75,6.0,12.0,98,0.07,RA,,0.27,WeatherDisplay:10.37,2013-10-21 23:59:00,
2013-10-22 01:14:00,54.2,53.6,29.24,ENE,75,5.0,9.0,98,0.09,RA,,0.36,WeatherDisplay:10.37,2013-10-22 00:14:00,
2013-10-22 01:29:00,54.8,54.3,29.24,ENE,63,3.0,5.0,98,0.05,RA,,0.42,WeatherDisplay:10.37,2013-10-22 00:29:00,
2013-10-22 01:44:00,55.0,54.4,29.23,ENE,58,5.0,5.0,98,0.02,RA,,0.43,WeatherDisplay:10.37,2013-10-22 00:44:00,
2013-10-22 01:59:00,55.0,54.5,29.23,NE,50,5.0,7.0,98,0.02,RA,,0.45,WeatherDisplay:10.37,2013-10-22 00:59:00,
2013-10-22 02:14:00,55.4,54.9,29.22,ENE,77,3.0,6.0,98,0.01,RA,,0.46,WeatherDisplay:10.37,2013-10-22 01:14:00,
2013-10-22 02:29:00,55.8,55.2,29.22,ENE,69,3.0,7.0,98,0.00,CLR,,0.46,WeatherDisplay:10.37,2013-10-22 01:29:00,
2013-10-22 02:44:00,56.4,55.9,29.21,ESE,103,2.0,5.0,98,0.00,CLR,,0.46,WeatherDisplay:10.37,2013-10-22 01:44:00,
2013-10-22 02:59:00,57.1,56.5,29.20,South,175,5.0,10.0,98,0.00,CLR,,0.46,WeatherDisplay:10.37,2013-10-22 01:59:00,
2013-10-22 03:14:00,57.7,57.1,29.20,SSW,210,8.0,13.0,98,0.00,CLR,,0.46,WeatherDisplay:10.37,2013-10-22 02:14:00,
2013-10-22 03:29:00,57.8,56.7,29.20,SSW,207,6.0,14.0,96,0.01,,,0.47,WeatherDisplay:10.37,2013-10-22 02:29:00,
2013-10-22 03:44:00,57.9,56.8,29.20,SW,222,6.0,12.0,96,0.00,CLR,,0.47,WeatherDisplay:10.37,2013-10-22 02:44:00,
2013-10-22 03:59:00,58.2,56.8,29.19,SW,232,3.0,12.0,95,0.00,CLR,,0.47,WeatherDisplay:10.37,2013-10-22 02:59:00,
2013-10-22 04:14:00,58.3,56.9,29.19,SSW,211,5.0,9.0,95,0.00,CLR,,0.47,WeatherDisplay:10.37,2013-10-22 03:14:00,
2013-10-22 04:29:00,58.5,56.7,29.19,South,188,8.0,14.0,94,0.00,CLR,,0.47,WeatherDisplay:10.37,2013-10-22 03:29:00,
2013-10-22 04:44:00,58.6,56.9,29.18,SSW,206,7.0,16.0,94,0.00,CLR,,0.47,WeatherDisplay:10.37,2013-10-22 03:44:00,
2013-10-22 04:59:00,58.9,56.6,29.18,SW,214,7.0,16.0,92,0.00,CLR,,0.47,WeatherDisplay:10.37,2013-10-22 03:59:00,
2013-10-22 05:14:00,58.6,56.3,29.18,SW,221,5.0,14.0,92,0.00,CLR,,0.47,WeatherDisplay:10.37,2013-10-22 04:14:00,
2013-10-22 05:29:00,59.2,56.3,29.18,SW,224,7.0,14.0,90,0.00,CLR,,0.47,WeatherDisplay:10.37,2013-10-22 04:29:00,
2013-10-22 05:44:00,58.9,55.7,29.17,SSW,212,5.0,14.0,89,0.00,CLR,,0.47,WeatherDisplay:10.37,2013-10-22 04:44:00,
2013-10-22 05:59:00,59.0,55.4,29.18,SW,233,5.0,12.0,88,0.00,CLR,,0.47,WeatherDisplay:10.37,2013-10-22 04:59:00,
2013-10-22 06:14:00,58.7,55.1,29.17,SW,219,6.0,14.0,88,0.00,CLR,,0.47,WeatherDisplay:10.37,2013-10-22 05:14:00,
2013-10-22 06:29:00,58.2,54.9,29.17,SW,223,7.0,12.0,89,0.00,CLR,,0.47,WeatherDisplay:10.37,2013-10-22 05:29:00,
2013-10-22 06:44:00,58.2,54.7,29.18,SW,231,5.0,12.0,88,0.00,CLR,,0.47,WeatherDisplay:10.37,2013-10-22 05:44:00,
2013-10-22 06:59:00,57.9,54.3,29.17,SW,219,6.0,10.0,88,0.00,CLR,,0.47,WeatherDisplay:10.37,2013-10-22 05:59:00,
2013-10-22 07:14:00,58.1,54.6,29.16,SW,220,8.0,14.0,88,0.00,CLR,,0.47,WeatherDisplay:10.37,2013-10-22 06:14:00,
2013-10-22 07:29:00,58.2,54.3,29.16,SW,214,8.0,14.0,87,0.00,CLR,,0.47,WeatherDisplay:10.37,2013-10-22 06:29:00,
2013-10-22 07:44:00,58.2,54.3,29.16,SW,215,6.0,12.0,87,0.00,CLR,,0.47,WeatherDisplay:10.37,2013-10-22 06:44:00,
2013-10-22 07:59:00,58.1,54.2,29.17,SSW,198,3.0,12.0,87,0.00,CLR,,0.47,WeatherDisplay:10.37,2013-10-22 06:59:00,
2013-10-22 08:14:00,58.2,54.3,29.17,SSE,148,2.0,6.0,87,0.00,CLR,,0.47,WeatherDisplay:10.37,2013-10-22 07:14:00,
2013-10-22 08:29:00,58.3,54.4,29.17,South,175,5.0,9.0,87,0.00,CLR,,0.47,WeatherDisplay:10.37,2013-10-22 07:29:00,
2013-10-22 08:44:00,58.0,54.4,29.17,SSE,160,2.0,6.0,88,0.00,CLR,,0.47,WeatherDisplay:10.37,2013-10-22 07:44:00,
2013-10-22 08:59:00,58.0,54.2,29.18,SSE,161,3.0,6.0,87,0.00,CLR,,0.47,WeatherDisplay:10.37,2013-10-22 07:59:00,
2013-10-22 09:14:00,58.1,54.2,29.17,SSW,203,2.0,5.0,87,0.00,CLR,,0.47,WeatherDisplay:10.37,2013-10-22 08:14:00,
2013-10-22 09:29:00,57.9,54.1,29.17,SSW,213,2.0,4.0,87,0.00,CLR,,0.47,WeatherDisplay:10.37,2013-10-22 08:29:00,
2013-10-22 09:44:00,58.2,54.0,29.18,SSW,205,0.0,3.0,86,0.00,CLR,,0.47,WeatherDisplay:10.37,2013-10-22 08:44:00,
2013-10-22 09:59:00,58.5,54.3,29.19,WSW,250,0.0,2.0,86,0.00,CLR,,0.47,WeatherDisplay:10.37,2013-10-22 08:59:00,
2013-10-22 10:14:00,58.3,54.1,29.18,SW,215,0.0,1.0,86,0.00,CLR,,0.47,WeatherDisplay:10.37,2013-10-22 09:14:00,
2013-10-22 10:29:00,58.2,54.1,29.18,SW,225,0.0,4.0,86,0.00,CLR,,0.47,WeatherDisplay:10.37,2013-10-22 09:29:00,
2013-10-22 10:44:00,58.3,54.1,29.17,SW,222,0.0,6.0,86,0.00,CLR,,0.47,WeatherDisplay:10.37,2013-10-22 09:44:00,
2013-10-22 10:59:00,58.2,54.1,29.17,WSW,253,1.0,3.0,86,0.00,CLR,,0.47,WeatherDisplay:10.37,2013-10-22 09:59:00,
2013-10-22 11:14:00,57.7,54.2,29.16,NNW,343,0.0,2.0,88,0.01,RA,,0.47,WeatherDisplay:10.37,2013-10-22 10:14:00,
2013-10-22 11:29:00,57.4,54.2,29.16,North,9,0.0,1.0,89,0.00,CLR,,0.47,WeatherDisplay:10.37,2013-10-22 10:29:00,
2013-10-22 11:44:00,57.6,54.7,29.16,NNE,23,1.0,2.0,90,0.01,,,0.48,WeatherDisplay:10.37,2013-10-22 10:44:00,
2013-10-22 11:59:00,57.6,54.4,29.16,ESE,107,2.0,4.0,89,0.00,CLR,,0.48,WeatherDisplay:10.37,2013-10-22 10:59:00,
2013-10-22 12:14:00,56.6,54.0,29.15,ENE,63,3.0,5.0,91,0.01,CLR,,0.49,WeatherDisplay:10.37,2013-10-22 11:14:00,
2013-10-22 12:29:00,56.5,54.2,29.16,East,80,1.0,5.0,92,0.00,CLR,,0.49,WeatherDisplay:10.37,2013-10-22 11:29:00,
2013-10-22 12:44:00,56.0,53.7,29.15,ENE,77,3.0,5.0,92,0.01,CLR,,0.50,WeatherDisplay:10.37,2013-10-22 11:44:00,
2013-10-22 12:59:00,55.6,53.9,29.15,ENE,59,2.0,4.0,94,0.01,CLR,,0.50,WeatherDisplay:10.37,2013-10-22 11:59:00,
2013-10-22 13:14:00,55.8,54.1,29.14,NE,40,1.0,4.0,94,0.00,CLR,,0.50,WeatherDisplay:10.37,2013-10-22 12:14:00,
2013-10-22 13:29:00,56.0,54.3,29.15,ENE,74,1.0,3.0,94,0.00,CLR,,0.50,WeatherDisplay:10.37,2013-10-22 12:29:00,
2013-10-22 13:44:00,56.1,54.4,29.15,East,95,1.0,3.0,94,0.00,CLR,,0.50,WeatherDisplay:10.37,2013-10-22 12:44:00,
2013-10-22 13:59:00,56.4,54.4,29.14,ESE,104,1.0,2.0,93,0.00,CLR,,0.50,WeatherDisplay:10.37,2013-10-22 12:59:00,
2013-10-22 14:14:00,56.6,54.6,29.14,ESE,105,0.0,2.0,93,0.00,CLR,,0.50,WeatherDisplay:10.37,2013-10-22 13:14:00,
2013-10-22 14:29:00,57.2,54.9,29.14,SSE,162,2.0,3.0,92,0.00,CLR,,0.50,WeatherDisplay:10.37,2013-10-22 13:29:00,
2013-10-22 14:44:00,57.5,54.9,29.13,SW,234,1.0,5.0,91,0.00,CLR,,0.50,WeatherDisplay:10.37,2013-10-22 13:44:00,
2013-10-22 14:59:00,58.7,55.7,29.13,WSW,255,0.0,3.0,90,0.00,CLR,,0.50,WeatherDisplay:10.37,2013-10-22 13:59:00,
2013-10-22 15:14:00,59.1,55.5,29.13,SW,226,2.0,3.0,88,0.00,CLR,,0.50,WeatherDisplay:10.37,2013-10-22 14:14:00,
2013-10-22 15:29:00,59.1,54.6,29.12,SW,215,3.0,6.0,85,0.00,CLR,,0.50,WeatherDisplay:10.37,2013-10-22 14:29:00,
2013-10-22 15:44:00,58.9,54.1,29.12,SW,223,2.0,7.0,84,0.00,CLR,,0.50,WeatherDisplay:10.37,2013-10-22 14:44:00,
2013-10-22 15:59:00,58.9,54.0,29.12,SSW,204,3.0,8.0,84,0.00,CLR,,0.50,WeatherDisplay:10.37,2013-10-22 14:59:00,
2013-10-22 16:14:00,58.6,53.8,29.12,SSW,205,5.0,8.0,84,0.00,CLR,,0.50,WeatherDisplay:10.37,2013-10-22 15:14:00,
2013-10-22 16:29:00,58.4,53.6,29.12,SSW,192,2.0,7.0,84,0.00,CLR,,0.50,WeatherDisplay:10.37,2013-10-22 15:29:00,
2013-10-22 16:44:00,58.4,53.9,29.11,SSW,192,1.0,5.0,85,0.00,CLR,,0.50,WeatherDisplay:10.37,2013-10-22 15:44:00,
2013-10-22 16:59:00,58.6,53.8,29.11,SE,142,1.0,6.0,84,0.00,CLR,,0.50,WeatherDisplay:10.37,2013-10-22 15:59:00,
2013-10-22 17:14:00,58.5,53.7,29.11,SSW,194,2.0,5.0,84,0.00,CLR,,0.50,WeatherDisplay:10.37,2013-10-22 16:14:00,
2013-10-22 17:29:00,58.0,53.5,29.11,South,184,3.0,8.0,85,0.00,CLR,,0.50,WeatherDisplay:10.37,2013-10-22 16:29:00,
2013-10-22 17:44:00,57.9,53.7,29.11,South,187,2.0,6.0,86,0.00,CLR,,0.50,WeatherDisplay:10.37,2013-10-22 16:44:00,
2013-10-22 17:59:00,57.4,53.9,29.12,SSW,203,7.0,15.0,88,0.04,RA,,0.54,WeatherDisplay:10.37,2013-10-22 16:59:00,
2013-10-22 18:14:00,56.7,54.1,29.11,South,181,1.0,10.0,91,0.00,CLR,,0.54,WeatherDisplay:10.37,2013-10-22 17:14:00,
2013-10-22 18:29:00,56.7,54.1,29.12,SSE,147,2.0,6.0,91,0.00,CLR,,0.54,WeatherDisplay:10.37,2013-10-22 17:29:00,
2013-10-22 18:44:00,56.9,54.0,29.12,South,175,5.0,8.0,90,0.00,CLR,,0.54,WeatherDisplay:10.37,2013-10-22 17:44:00,
2013-10-22 18:59:00,57.3,54.1,29.12,South,179,5.0,9.0,89,0.00,CLR,,0.54,WeatherDisplay:10.37,2013-10-22 17:59:00,
2013-10-22 19:14:00,57.2,54.0,29.12,South,182,5.0,8.0,89,0.00,CLR,,0.54,WeatherDisplay:10.37,2013-10-22 18:14:00,
2013-10-22 19:29:00,57.0,53.8,29.12,SSE,153,1.0,7.0,89,0.00,CLR,,0.54,WeatherDisplay:10.37,2013-10-22 18:29:00,
2013-10-22 19:44:00,56.7,53.5,29.12,SSW,204,3.0,6.0,89,0.00,CLR,,0.54,WeatherDisplay:10.37,2013-10-22 18:44:00,
2013-10-22 19:59:00,56.9,53.4,29.12,South,188,3.0,10.0,88,0.00,CLR,,0.54,WeatherDisplay:10.37,2013-10-22 18:59:00,
2013-10-22 20:14:00,57.0,53.2,29.11,SSW,200,6.0,10.0,87,0.00,CLR,,0.54,WeatherDisplay:10.37,2013-10-22 19:14:00,
2013-10-22 20:29:00,57.0,53.2,29.11,SSW,203,9.0,13.0,87,0.00,CLR,,0.54,WeatherDisplay:10.37,2013-10-22 19:29:00,
2013-10-22 20:44:00,57.1,53.0,29.11,SSW,208,10.0,16.0,86,0.00,CLR,,0.54,WeatherDisplay:10.37,2013-10-22 19:44:00,
2013-10-22 20:59:00,56.8,52.7,29.11,SSW,212,6.0,15.0,86,0.00,CLR,,0.54,WeatherDisplay:10.37,2013-10-22 19:59:00,
2013-10-22 21:14:00,56.5,52.7,29.11,South,189,5.0,9.0,87,0.00,CLR,,0.54,WeatherDisplay:10.37,2013-10-22 20:14:00,
2013-10-22 21:29:00,56.6,52.8,29.11,SSW,194,7.0,12.0,87,0.00,CLR,,0.54,WeatherDisplay:10.37,2013-10-22 20:29:00,
2013-10-22 21:44:00,57.0,52.9,29.11,SSW,199,6.0,12.0,86,0.00,CLR,,0.54,WeatherDisplay:10.37,2013-10-22 20:44:00,
2013-10-22 21:59:00,57.2,53.0,29.10,SW,218,1.0,9.0,86,0.00,CLR,,0.54,WeatherDisplay:10.37,2013-10-22 20:59:00,
2013-10-22 22:14:00,57.9,53.5,29.10,SSE,154,2.0,5.0,85,0.00,CLR,,0.54,WeatherDisplay:10.37,2013-10-22 21:14:00,
2013-10-22 22:29:00,57.6,53.4,29.10,SSE,164,1.0,7.0,86,0.00,CLR,,0.54,WeatherDisplay:10.37,2013-10-22 21:29:00,
2013-10-22 22:44:00,57.5,53.1,29.10,SSE,153,3.0,6.0,85,0.00,CLR,,0.54,WeatherDisplay:10.37,2013-10-22 21:44:00,
2013-10-22 22:59:00,57.6,53.1,29.10,SSE,158,3.0,7.0,85,0.01,RA,,0.55,WeatherDisplay:10.37,2013-10-22 21:59:00,
2013-10-22 23:14:00,57.2,53.1,29.10,SE,139,1.0,5.0,86,0.00,CLR,,0.55,WeatherDisplay:10.37,2013-10-22 22:14:00,
2013-10-22 23:29:00,56.8,53.0,29.09,SE,129,0.0,5.0,87,0.00,CLR,,0.55,WeatherDisplay:10.37,2013-10-22 22:29:00,
2013-10-22 23:44:00,56.4,52.9,29.09,East,97,2.0,4.0,88,0.00,CLR,,0.55,WeatherDisplay:10.37,2013-10-22 22:44:00,
2013-10-22 23:59:00,56.0,52.8,29.08,ENE,68,1.0,4.0,89,0.00,RA,,0.00,WeatherDisplay:10.37,2013-10-22 22:59:00,